sat.trackr.live / text

‹ back to catalog

STARLINK-34405

NORAD 64704 · 2025-142J

PAYLOAD ACTIVE UNKNOWN

§ Identity

Operator
Country
US
Launch date
2025-06-28
Launch site
AFWTR
Launch vehicle
Mass (kg)
RCS (m²)

Purposes: comms

External: N2YO · Heavens-Above · Gunter

§ Orbital elements

Epoch: 2026-09-20T18:05:34.428480Z

Period
94.14 min
Inclination
70.0017°
Eccentricity
0.0003127
Mean motion
15.29600300 rev/d
Perigee alt
474.9 km
Apogee alt
479.1 km
Semi-major
6,855.1 km
B*
5.3790e-4
RAAN
180.4773°
Arg perigee
271.0469°
Mean anomaly
89.0347°
Rev number
6,876

§ Raw data

STARLINK-344051 64704U 25142J   26263.75387070  .00015376  00000+0  53790-3 0  99992 64704  70.0017 180.4773 0003127 271.0469  89.0347 15.29600300 68764

JSON: /api/v1/satellites/64704 · /tle

For live sub-satellite position, see the globe view (requires WebGL).

§ Visibility from observer

Set your observer location to see the next 7 days of passes ≥ 10°. The values pass through the URL so the page stays shareable.

No JS? Fill the form by hand. The geolocation button needs JavaScript.